TimeCDT,TemperatureF,Dew PointF,Humidity,Sea Level PressureIn,VisibilityMPH,Wind Direction,Wind SpeedMPH,Gust SpeedMPH,PrecipitationIn,Events,Conditions,WindDirDegrees,DateUTC
12:56 AM,31.1,30.0,96,29.88,10.0,ESE,5.8,-,N/A,,Clear,120,2014-03-18 05:56:00
1:56 AM,32.0,30.0,92,29.89,10.0,Calm,Calm,-,N/A,,Clear,0,2014-03-18 06:56:00
2:56 AM,30.0,30.0,100,29.88,10.0,ESE,3.5,-,N/A,,Clear,110,2014-03-18 07:56:00
3:56 AM,30.0,30.0,100,29.87,10.0,ESE,4.6,-,N/A,,Clear,120,2014-03-18 08:56:00
4:56 AM,29.1,29.1,100,29.89,10.0,Calm,Calm,-,N/A,,Mostly Cloudy,0,2014-03-18 09:56:00
5:56 AM,31.1,31.1,100,29.90,7.0,Calm,Calm,-,N/A,,Overcast,0,2014-03-18 10:56:00
6:56 AM,32.9,32.9,100,29.90,6.0,Calm,Calm,-,N/A,,Overcast,0,2014-03-18 11:56:00
7:40 AM,35.6,35.6,100,29.89,5.0,SE,4.6,-,N/A,,Overcast,130,2014-03-18 12:40:00
7:56 AM,34.9,34.9,100,29.90,5.0,ESE,6.9,-,N/A,,Overcast,110,2014-03-18 12:56:00
8:56 AM,36.0,36.0,100,29.93,6.0,SE,9.2,-,N/A,,Overcast,130,2014-03-18 13:56:00
9:56 AM,36.9,36.9,100,29.96,7.0,SSE,10.4,-,N/A,,Overcast,160,2014-03-18 14:56:00
10:56 AM,37.9,37.9,100,29.97,7.0,South,11.5,19.6,N/A,,Overcast,170,2014-03-18 15:56:00
11:33 AM,39.2,37.4,93,29.96,8.0,South,11.5,19.6,N/A,,Overcast,170,2014-03-18 16:33:00
11:56 AM,39.9,37.9,93,29.96,10.0,South,12.7,-,N/A,,Overcast,170,2014-03-18 16:56:00
12:56 PM,45.0,39.9,82,29.95,10.0,South,10.4,-,N/A,,Overcast,190,2014-03-18 17:56:00
1:56 PM,47.8,43.0,83,29.91,10.0,South,15.0,-,N/A,,Overcast,170,2014-03-18 18:56:00
2:56 PM,50.9,43.9,77,29.88,10.0,South,12.7,-,N/A,,Overcast,180,2014-03-18 19:56:00
3:56 PM,55.9,45.9,69,29.85,10.0,SSE,15.0,-,N/A,,Overcast,160,2014-03-18 20:56:00
4:56 PM,54.9,45.9,72,29.81,10.0,SSE,17.3,-,N/A,,Mostly Cloudy,160,2014-03-18 21:56:00
5:56 PM,54.9,45.9,72,29.79,10.0,SSE,17.3,-,N/A,,Mostly Cloudy,160,2014-03-18 22:56:00
6:56 PM,52.0,45.0,77,29.77,10.0,SSE,13.8,-,N/A,,Scattered Clouds,160,2014-03-18 23:56:00
7:56 PM,50.0,45.0,83,29.77,10.0,SSE,13.8,-,N/A,,Clear,160,2014-03-19 00:56:00
8:56 PM,48.9,45.0,86,29.80,10.0,South,12.7,-,N/A,,Clear,180,2014-03-19 01:56:00
9:56 PM,46.9,43.9,89,29.83,10.0,South,11.5,-,N/A,,Clear,190,2014-03-19 02:56:00
10:56 PM,46.9,43.9,89,29.85,10.0,South,12.7,-,N/A,,Clear,190,2014-03-19 03:56:00
11:29 PM,46.4,44.6,93,29.86,10.0,SSW,12.7,-,N/A,,Mostly Cloudy,200,2014-03-19 04:29:00
11:56 PM,47.8,45.0,90,29.87,10.0,South,15.0,-,N/A,,Overcast,190,2014-03-19 04:56:00